Middletown, OH

3:40 PM EDT on April 29, 2017 (GMT -0400)
Hook Field Municipal

Weather History for KMWO - October, 2012

Change the Weather History Date:

Friday, October 12, 2012

  Actual Average (KFFO) Record (KFFO)
Temperature  
Mean Temperature 47 °F -  
Max Temperature 57 °F 63 °F 84 °F (2008)
Min Temperature 35 °F 41 °F 33 °F (2006)
Degree Days  
Heating Degree Days 18    
Moisture  
Dew Point 40 °F    
Average Humidity 80    
Maximum Humidity 100    
Minimum Humidity 42    
Precipitation  
Precipitation 0.00 in - - ()
Sea Level Pressure  
Sea Level Pressure 30.32 in    
Wind  
Wind Speed 3 mph (NE)    
Max Wind Speed 17 mph    
Max Gust Speed 23 mph    
Visibility 9 miles    
Events      
Averages and records for this station are not official NWS values.
T = Trace of Precipitation, MM = Missing Value Source: NWS Daily Summary

Daily Weather History Graph

Daily Weather History Graph

Search for Another Location

Airport or City:

Trip Planner

Search our weather history database for the weather conditions in past years. The results will help you decide how hot, cold, wet, or windy it might be!

Date:

Astronomy

Oct. 12, 2012 Rise Set
Actual Time 7:45 AM EDT 7:02 PM EDT
Civil Twilight 7:18 AM EDT 7:29 PM EDT
Nautical Twilight 6:46 AM EDT 8:00 PM EDT
Astronomical Twilight 6:15 AM EDT 8:31 PM EDT
Moon 4:27 AM EDT (10/12) 5:10 PM EDT (10/12)
Length of Visible Light 12h 11m
Length of Day
11h 17m
Waning Crescent, 11% of the Moon is Illuminated
Oct 12
Waning Crescent
Oct 15
New
Oct 21
First Quarter
Oct 29
Full
Nov 6
Last Quarter

Hourly Weather History & Observations

Time (EDT) Temp. Windchill Dew Point Humidity Pressure Visibility Wind Dir Wind Speed Gust Speed Precip Events Conditions
12:15 AM 38.5 °F - 38.5 °F 100% 30.21 in 10.0 mi Calm Calm - N/A   Clear
12:35 AM 39.0 °F - 38.8 °F 99% 30.22 in 10.0 mi Calm Calm - N/A   Clear
12:55 AM 39.9 °F - 39.9 °F 100% 30.23 in 10.0 mi Calm Calm - N/A   Clear
1:15 AM 40.1 °F - 40.1 °F 100% 30.22 in 10.0 mi Calm Calm - N/A   Scattered Clouds
1:35 AM 40.3 °F - 40.3 °F 100% 30.22 in 10.0 mi Calm Calm - N/A   Scattered Clouds
1:55 AM 40.6 °F - 40.6 °F 100% 30.22 in 10.0 mi Calm Calm - N/A   Clear
2:15 AM 40.1 °F - 40.1 °F 100% 30.21 in 10.0 mi Calm Calm - N/A   Clear
2:35 AM 40.1 °F - 40.1 °F 100% 30.21 in 10.0 mi Calm Calm - N/A   Clear
2:55 AM 40.1 °F - 40.1 °F 100% 30.21 in 10.0 mi Calm Calm - N/A   Clear
3:15 AM 40.1 °F - 40.1 °F 100% 30.22 in 10.0 mi Calm Calm - N/A   Scattered Clouds
3:35 AM 40.6 °F 38.6 °F 40.6 °F 100% 30.23 in 10.0 mi SW 3.5 mph - N/A   Clear
3:55 AM 41.4 °F - 41.4 °F 100% 30.23 in 10.0 mi Calm Calm - N/A   Clear
4:15 AM 42.8 °F - 42.1 °F 97% 30.22 in 10.0 mi Calm Calm - N/A   Scattered Clouds
4:35 AM 42.8 °F - 42.4 °F 99% 30.23 in 10.0 mi Calm Calm - N/A   Scattered Clouds
4:55 AM 42.8 °F - 42.8 °F 100% 30.24 in 10.0 mi Calm Calm - N/A   Scattered Clouds
5:15 AM 42.8 °F - 42.6 °F 99% 30.25 in 10.0 mi Calm Calm - N/A   Clear
5:35 AM 42.4 °F - 42.3 °F 99% 30.25 in 10.0 mi Calm Calm - N/A   Clear
5:55 AM 41.5 °F - 41.5 °F 100% 30.26 in 10.0 mi Calm Calm - N/A   Clear
6:15 AM 41.4 °F - 41.4 °F 100% 30.27 in 10.0 mi Calm Calm - N/A   Clear
6:35 AM 40.3 °F - 40.3 °F 100% 30.28 in 10.0 mi Calm Calm - N/A   Clear
6:55 AM 38.8 °F - 38.8 °F 100% 30.28 in 10.0 mi Calm Calm - N/A   Clear
7:15 AM 37.8 °F - 37.8 °F 100% 30.29 in 10.0 mi Calm Calm - N/A   Clear
7:35 AM 38.8 °F - 38.8 °F 100% 30.30 in 10.0 mi Calm Calm - N/A   Clear
7:55 AM 38.1 °F 35.7 °F 38.1 °F 100% 30.30 in 10.0 mi NE 3.5 mph - N/A   Clear
8:15 AM 40.8 °F 36.2 °F 40.8 °F 100% 30.31 in 10.0 mi NNE 6.9 mph - N/A   Clear
8:35 AM 47.7 °F - 46.0 °F 94% 30.32 in 10.0 mi NNE 6.9 mph - N/A   Clear
8:55 AM 47.7 °F - 45.5 °F 92% 30.33 in 10.0 mi NNE 11.5 mph - N/A   Clear
9:15 AM 47.7 °F - 45.0 °F 90% 30.34 in 10.0 mi NNE 11.5 mph 16.1 mph N/A   Clear
9:35 AM 47.7 °F - 43.7 °F 86% 30.35 in 10.0 mi NE 11.5 mph 17.3 mph N/A   Scattered Clouds
9:55 AM 48.9 °F - 43.5 °F 82% 30.37 in 10.0 mi NNE 13.8 mph 18.4 mph N/A   Mostly Cloudy
10:15 AM 52.7 °F - 44.1 °F 72% 30.38 in 10.0 mi ENE 17.3 mph 23.0 mph N/A   Scattered Clouds
10:35 AM 51.6 °F - 41.7 °F 69% 30.40 in 10.0 mi NE 15.0 mph 19.6 mph N/A   Mostly Cloudy
10:55 AM 50.0 °F - 41.2 °F 72% 30.40 in 10.0 mi NE 10.4 mph 16.1 mph N/A   Overcast
11:15 AM 50.2 °F - 40.6 °F 70% 30.40 in 10.0 mi NE 12.7 mph - N/A   Overcast
11:35 AM 52.7 °F - 41.7 °F 66% 30.40 in 10.0 mi NE 11.5 mph 16.1 mph N/A   Overcast
12:15 PM 52.7 °F - 39.6 °F 61% 30.41 in 10.0 mi NE 11.5 mph - N/A   Overcast
12:35 PM 52.7 °F - 38.8 °F 59% 30.41 in 10.0 mi Calm Calm - N/A   Mostly Cloudy
12:55 PM 53.2 °F - 37.8 °F 56% 30.41 in 10.0 mi ENE 4.6 mph - N/A   Scattered Clouds
1:15 PM 53.4 °F - 37.4 °F 55% 30.40 in 10.0 mi NE 3.5 mph - N/A   Clear
1:35 PM 55.4 °F - 38.8 °F 54% 30.39 in 10.0 mi NE 8.1 mph - N/A   Clear
1:55 PM 55.4 °F - 38.3 °F 53% 30.39 in 10.0 mi NE 8.1 mph 17.3 mph N/A   Clear
2:35 PM 55.6 °F - 38.5 °F 53% 30.38 in 10.0 mi ENE 4.6 mph - N/A   Clear
2:55 PM 56.3 °F - 38.5 °F 51% 30.37 in 10.0 mi ENE 10.4 mph - N/A   Clear
3:15 PM 57.6 °F - 39.2 °F 50% 30.37 in 10.0 mi East 4.6 mph - N/A   Clear
3:35 PM 57.4 °F - 39.7 °F 52% 30.36 in 10.0 mi NE 6.9 mph - N/A   Clear
3:55 PM 57.7 °F - 38.8 °F 49% 30.36 in 10.0 mi NE 4.6 mph - N/A   Clear
4:15 PM 57.7 °F - 37.6 °F 47% 30.35 in 10.0 mi North 5.8 mph - N/A   Clear
4:35 PM 57.7 °F - 37.4 °F 47% 30.35 in 4.0 mi NNE 4.6 mph - N/A   Haze
4:55 PM 57.7 °F - 36.1 °F 44% 30.35 in 10.0 mi North 4.6 mph - N/A   Clear
5:15 PM 57.7 °F - 35.6 °F 44% 30.36 in 10.0 mi Calm Calm - N/A   Clear
5:35 PM 57.7 °F - 34.7 °F 42% 30.35 in 10.0 mi Calm Calm - N/A   Clear
5:55 PM 57.7 °F - 36.0 °F 44% 30.35 in 10.0 mi East 3.5 mph - N/A   Clear
6:15 PM 57.4 °F - 35.8 °F 44% 30.36 in 10.0 mi ENE 5.8 mph - N/A   Clear
6:55 PM 52.7 °F - 35.4 °F 52% 30.36 in 10.0 mi ENE 3.5 mph - N/A   Clear
7:15 PM 51.3 °F - 42.1 °F 71% 30.36 in 5.0 mi North 3.5 mph - N/A   Haze
7:35 PM 47.7 °F - 41.5 °F 79% 30.37 in 10.0 mi Calm Calm - N/A   Clear
7:55 PM 47.7 °F - 40.5 °F 76% 30.37 in 10.0 mi North 4.6 mph - N/A   Clear
8:15 PM 45.1 °F 43.7 °F 39.9 °F 82% 30.37 in 10.0 mi NNE 3.5 mph - N/A   Clear
8:35 PM 43.2 °F - 37.8 °F 81% 30.37 in 10.0 mi Calm Calm - N/A   Clear
8:55 PM 41.0 °F 39.0 °F 37.0 °F 86% 30.37 in 5.0 mi North 3.5 mph - N/A   Clear
9:15 PM 40.6 °F 38.6 °F 37.0 °F 87% 30.37 in 2.0 mi North 3.5 mph - N/A   Clear
9:35 PM 40.1 °F - 37.4 °F 90% 30.38 in 7.0 mi Calm Calm - N/A   Clear
10:15 PM 39.0 °F - 36.9 °F 92% 30.38 in 1.8 mi Calm Calm - N/A   Mist
10:35 PM 37.6 °F 34.0 °F 36.1 °F 95% 30.38 in 5.0 mi North 4.6 mph - N/A   Clear
10:55 PM 37.6 °F 35.1 °F 36.3 °F 95% 30.37 in 3.0 mi North 3.5 mph - N/A   Clear
11:15 PM 37.6 °F 34.0 °F 35.8 °F 93% 30.37 in 10.0 mi North 4.6 mph - N/A   Clear
11:55 PM 35.6 °F - 34.5 °F 96% 30.37 in 10.0 mi Calm Calm - N/A   Clear